Time,B instrument,Bx,By,Bz,sigma B,Ion instrument,Status,Tp_par,Tp_perp,carrot,r_sun,clat,clong,earth_he_angle,n_p,vp_x,vp_y,vp_z,vth_p_par,vth_p_perp
1980-01-17 00:03:06,-1,nan,nan,nan,nan,1,3,nan,nan,1690,0.86850613,3.231988,27.964844,293.20313,nan,343.251,14.6538,22.4592,nan,nan
1980-01-17 00:04:27,1,13.3667,0.466667,-7.88333,0.25658,1,1,39767.3,32907.1,1690,0.86851048,3.2319174,27.948975,293.20288,24.0208,344.3,15.4482,22.6844,25.6225,23.3079
1980-01-17 00:05:48,1,13.2833,0.2,-8.05,0.327448,1,1,40266.6,36868.2,1690,0.86851484,3.2318478,27.937256,293.20288,23.5507,342.268,15.5726,22.0307,25.7828,24.6708
1980-01-17 00:07:09,1,13.2167,0.0666667,-7.9,0.300463,1,1,36154.3,29999.3,1690,0.86852354,3.2317076,27.925293,293.20264,24.1607,342.073,16.7185,21.0723,24.4308,22.2543
1980-01-17 00:08:32,1,13.4333,0.0333333,-7.83333,0.223607,1,1,41284.2,37268.6,1690,0.86852789,3.231637,27.913574,293.20264,24.2936,341.418,17.7395,19.9754,26.1066,24.8044
1980-01-17 00:09:53,1,13.8,-0.08,-7.1,0.581034,1,1,35476.3,27355.7,1690,0.86853224,3.2315674,27.901611,293.20239,24.0616,340.464,17.7307,19.7933,24.2007,21.2511
1980-01-17 00:11:14,1,14.05,-0.733333,-6.3,0.376017,1,1,36973.1,37145.0,1690,0.868541,3.2314272,27.889893,293.20239,24.1892,342.103,16.8436,21.5266,24.7059,24.7633
1980-01-17 00:12:35,1,14.1833,-0.566667,-6.7,0.258736,1,1,33125.7,31006.3,1690,0.86854535,3.2313566,27.874023,293.20215,23.106,340.666,18.926,21.464,23.3852,22.6247
1980-01-17 00:13:56,1,13.7,-0.45,-7.23333,0.260875,1,1,32376.3,36966.6,1690,0.8685497,3.231287,27.862305,293.20215,23.0415,342.372,16.319,23.3601,23.1191,24.7037
1980-01-17 00:15:17,1,12.85,-0.2,-8.73333,0.558022,1,1,40981.8,30286.5,1690,0.86855841,3.2311468,27.850342,293.2019,22.5652,345.885,16.7038,22.7838,26.0108,22.3606
1980-01-17 00:16:38,1,12.7,-0.25,-9.0,0.221736,1,1,38767.4,35288.6,1690,0.86856276,3.2310762,27.838623,293.2019,21.6037,345.033,16.6904,23.6105,25.2983,24.1366
1980-01-17 00:17:59,1,14.1,-1.16667,-7.36667,0.323179,1,1,36539.9,30428.7,1690,0.86856711,3.2310057,27.826904,293.2019,20.6872,341.167,17.7192,20.6973,24.5607,22.413
1980-01-17 01:29:30,-1,nan,nan,nan,nan,1,3,nan,nan,1690,0.86888069,3.2259579,27.168213,293.19556,nan,330.176,23.337,19.6897,nan,nan
1980-01-17 01:30:51,1,12.6667,-3.16667,-7.33333,0.443471,1,1,36674.9,30238.0,1690,0.86888504,3.2258873,27.152588,293.19556,17.2793,333.012,22.8319,18.1022,24.6061,22.3426
1980-01-17 01:32:12,1,12.7667,-2.75,-7.46667,0.383333,1,1,41873.9,34044.2,1690,0.86889374,3.2257471,27.140625,293.19531,17.7887,333.493,22.1732,20.8487,26.2923,23.7072
1980-01-17 01:33:33,1,12.6,-2.76667,-7.46667,0.35746,1,1,34495.0,29604.5,1690,0.86889809,3.2256765,27.128906,293.19531,18.0137,332.508,18.0906,17.7559,23.8636,22.1074
1980-01-17 01:34:56,1,11.66,-5.02,-6.82,0.376298,1,1,43954.3,37781.1,1690,0.86890244,3.2256069,27.117188,293.19531,19.4166,333.308,27.5532,18.0759,26.9376,24.9744
1980-01-17 01:36:17,1,11.4333,-4.48333,-7.43333,0.33541,1,1,43416.3,32800.6,1690,0.86891115,3.2254667,27.105225,293.19507,18.1262,334.257,21.4726,20.9308,26.7722,23.2701
1980-01-17 01:37:38,1,11.22,-3.94,-7.78,0.24,1,1,45803.0,36649.6,1690,0.8689155,3.2253962,27.0896,293.19507,18.5759,332.954,22.577,22.0096,27.4982,24.5976
1980-01-17 01:40:18,1,10.9667,-4.96667,-7.3,0.2848,1,1,46577.7,36889.7,1690,0.86888266,3.2381101,26.98764,293.11655,19.4276,332.804,25.2384,21.9253,27.7298,24.678
1980-01-17 01:41:39,1,11.3,-4.8,-7.38,0.16,1,1,37125.8,32178.1,1690,0.8688885,3.2380226,26.975769,293.11639,17.9942,333.038,21.7409,19.879,24.7569,23.0483
1980-01-17 01:43:27,-1,nan,nan,nan,nan,1,4,nan,nan,1690,0.86894161,3.2249756,27.03833,293.19458,nan,nan,nan,nan,nan,nan
1980-01-17 01:43:28,1,11.4333,-4.5,-7.3,0.298142,1,1,45498.3,38935.2,1690,0.86894155,3.2249756,27.03833,293.19458,19.3523,332.223,20.3746,20.2722,27.4066,25.353
1980-01-17 01:44:21,1,11.2667,-4.61667,-7.3,0.23863,1,1,34967.2,30314.4,1690,0.86894596,3.224906,27.030273,293.19434,18.2641,333.583,18.6443,19.7302,24.0264,22.3708
1980-01-17 01:45:44,1,11.1667,-4.86667,-7.16667,0.282843,1,1,47511.6,37252.2,1690,0.86895031,3.2248354,27.018555,293.19434,19.2739,334.112,23.6303,19.4307,28.0064,24.799
1980-01-17 01:47:05,1,10.94,-3.48,-7.78,0.305941,1,1,39018.5,31029.2,1690,0.86895901,3.2246952,27.002686,293.19409,17.7316,334.439,19.0618,21.4246,25.3801,22.633
1980-01-17 01:48:26,1,10.4,-2.86667,-8.56667,0.272845,1,1,43809.4,36996.1,1690,0.86896336,3.2246256,26.990967,293.19409,18.1373,334.264,16.09,25.7529,26.8931,24.7136
1980-01-17 01:49:47,1,10.7833,-4.25,-7.96667,0.453995,1,1,36089.8,29321.3,1690,0.86896771,3.224555,26.979004,293.19385,18.1052,335.34,17.6408,23.3346,24.409,22.0014
1980-01-17 01:51:08,1,10.6667,-8.06667,-4.93333,0.725718,1,1,38990.8,37071.5,1690,0.86897641,3.2244148,26.967285,293.19385,19.4897,335.492,31.2765,16.8359,25.3711,24.7388
1980-01-17 01:52:29,-1,nan,nan,nan,nan,1,3,nan,nan,1690,0.86898077,3.2243452,26.955322,293.1936,nan,334.812,33.3474,12.9659,nan,nan
1980-01-17 01:53:50,-1,nan,nan,nan,nan,1,3,nan,nan,1690,0.86898512,3.2242746,26.943604,293.1936,nan,334.108,33.3128,12.2328,nan,nan
1980-01-17 06:23:56,-1,nan,nan,nan,nan,1,3,nan,nan,1690,0.87015629,3.2053585,24.45166,293.17041,nan,334.337,33.2627,13.5442,nan,nan
1980-01-17 06:27:59,-1,nan,nan,nan,nan,1,3,nan,nan,1690,0.87017357,3.2050781,24.412354,293.17017,nan,380.613,-18.3384,0.632678,nan,nan
1980-01-17 06:29:21,-1,nan,nan,nan,nan,1,3,nan,nan,1690,0.87018222,3.2049379,24.400391,293.16992,nan,376.372,-19.6233,-0.237365,nan,nan
1980-01-17 06:30:42,-1,nan,nan,nan,nan,1,3,nan,nan,1690,0.87018657,3.2048683,24.388672,293.16992,nan,377.175,-17.9678,-0.874207,nan,nan
1980-01-17 06:32:03,-1,nan,nan,nan,nan,1,3,nan,nan,1690,0.87019521,3.2047281,24.376709,293.16968,nan,379.614,-17.6897,-0.245734,nan,nan
1980-01-17 06:33:24,-1,nan,nan,nan,nan,1,3,nan,nan,1690,0.87019956,3.2046585,24.36084,293.16943,nan,380.139,-16.4954,1.47658,nan,nan
1980-01-17 06:34:45,-1,nan,nan,nan,nan,1,3,nan,nan,1690,0.87020385,3.2045879,24.349121,293.16943,nan,384.408,-18.2246,-3.38625,nan,nan
1980-01-17 06:36:06,1,-5.4,7.6,-1.08571,0.646813,1,1,145054.0,130489.0,1690,0.87021255,3.2044487,24.337158,293.16919,18.0426,383.17,-18.9189,-4.9736,48.9354,46.4135
1980-01-17 06:37:27,1,-0.871429,5.28571,-4.45714,0.410575,1,1,148635.0,182082.0,1690,0.87021685,3.2043781,24.325439,293.16919,15.4822,372.932,-14.331,-0.793257,49.5356,54.8266
1980-01-17 06:38:48,1,-0.05,5.06667,-5.16667,0.356293,1,1,152527.0,194791.0,1690,0.8702212,3.2043085,24.313721,293.16919,16.5839,369.342,-11.5786,0.0615975,50.1801,56.7077
1980-01-17 06:40:09,1,0.757143,3.01429,-6.1,0.729551,1,1,155235.0,191067.0,1690,0.87022984,3.2041683,24.301758,293.16895,17.2314,366.295,-7.52987,1.6739,50.6235,56.1631
1980-01-17 06:41:30,1,0.566667,3.18333,-6.56667,0.5058,1,1,131531.0,166265.0,1690,0.87023413,3.2040977,24.290039,293.16895,15.7266,368.04,-6.39613,2.74017,46.5984,52.3912
1980-01-17 06:42:51,1,0.114286,3.58571,-6.07143,0.564602,1,1,120180.0,177357.0,1690,0.87023848,3.2040281,24.27417,293.1687,15.0502,372.305,-11.8181,5.13418,44.5425,54.1106
1980-01-17 06:44:12,1,0.1,3.21429,-5.08571,0.287139,1,1,171511.0,190399.0,1690,0.87024713,3.2038879,24.262207,293.16846,16.6082,370.349,-4.40814,1.27944,53.2113,56.0648
1980-01-17 06:45:33,1,-0.6,3.25714,-4.47143,0.687794,1,1,145264.0,162396.0,1690,0.87025148,3.2038183,24.250488,293.16846,14.9806,378.185,-7.62474,4.76589,48.9708,51.7781
1980-01-17 06:46:54,1,-0.514286,4.12857,-4.0,0.221313,1,1,187226.0,190140.0,1690,0.87025577,3.2037477,24.23877,293.16846,16.7807,373.063,-11.2288,-0.257205,55.5957,56.0266
1980-01-17 06:48:15,1,0.271429,3.04286,-4.4,0.419426,1,1,214132.0,199762.0,1690,0.87026447,3.2036085,24.226807,293.16821,18.1277,367.527,-7.36496,-3.09613,59.4565,57.4268
1980-01-17 06:49:36,1,-2.27143,4.41429,-3.34286,0.489898,1,1,202382.0,181491.0,1690,0.87026876,3.2035379,24.215088,293.16821,16.8678,373.815,-11.3616,-2.50568,57.8021,54.7376
1980-01-17 06:50:57,1,-0.0375,3.45,-3.6375,0.38365,1,1,226577.0,196626.0,1690,0.87027311,3.2034683,24.199219,293.16797,18.3464,363.877,-8.29554,-1.79917,61.1598,56.9742
1980-01-17 06:52:18,1,0.585714,2.4,-3.95714,0.666088,1,1,146420.0,171645.0,1690,0.87028176,3.2033281,24.187256,293.16772,14.7409,361.158,2.27562,8.15704,49.1653,53.232
1980-01-17 06:53:39,1,-0.942857,4.58571,-3.37143,0.936559,1,1,199834.0,167082.0,1690,0.87028605,3.2032576,24.175537,293.16772,15.2489,370.536,-5.14436,-2.8426,57.4371,52.5198
1980-01-17 06:55:00,1,0.283333,2.6,-4.5,0.318416,1,1,219422.0,174445.0,1690,0.87029475,3.2031183,24.163574,293.16748,16.1302,366.344,0.129736,-3.03555,60.1863,53.6644
1980-01-17 06:56:21,1,1.31429,1.95714,-4.67143,0.226779,1,1,179992.0,169979.0,1690,0.87029904,3.2030478,24.151855,293.16748,15.3406,364.556,0.143258,-0.359522,54.511,52.9731
1980-01-17 06:57:42,1,0.6,1.9,-4.01429,0.603392,1,1,210189.0,189669.0,1690,0.87030339,3.2029781,24.140137,293.16748,17.5693,365.378,-2.53452,-0.73908,58.9064,55.9573
1980-01-17 06:59:03,1,1.3,1.3,-3.41429,0.50548,1,1,238582.0,172093.0,1690,0.87031204,3.2028379,24.124268,293.16724,17.1774,368.131,3.52323,-3.66687,62.7591,53.3015
1980-01-17 07:00:24,1,-0.416667,2.71667,-3.26667,0.77352,1,1,258796.0,203081.0,1690,0.87031639,3.2027683,24.112549,293.16724,18.4339,373.296,-5.21093,-4.7456,65.3637,57.9019
1980-01-17 07:01:45,1,0.757143,1.71429,-3.81429,0.546977,1,1,217572.0,224681.0,1690,0.87032068,3.2026978,24.100586,293.16699,16.8743,369.467,-1.63968,-12.9292,59.9321,60.9034
1980-01-17 07:03:06,1,0.75,-0.833333,-4.35,0.627606,1,1,165886.0,180389.0,1690,0.87032932,3.2025576,24.088867,293.16699,17.3054,369.184,6.51713,0.0948827,52.3314,54.5711
1980-01-17 07:04:27,1,0.85,-1.36667,-4.4,0.421966,1,1,212888.0,182627.0,1690,0.87033361,3.2024879,24.076904,293.16675,18.4383,367.182,6.32992,-0.188011,59.2834,54.9085
1980-01-17 07:05:48,1,0.757143,0.385714,-2.55714,0.60034,1,1,205718.0,189951.0,1690,0.87033796,3.2024183,24.065186,293.16675,18.0585,365.864,2.64822,-7.87787,58.2765,55.9988
1980-01-17 07:07:09,1,1.18571,-1.82857,-3.77143,0.585191,1,1,204510.0,186345.0,1690,0.87034661,3.2022781,24.053223,293.1665,17.4077,366.109,3.58052,-7.75322,58.1052,55.4647
1980-01-17 07:08:30,1,0.571429,-0.557143,-2.62857,0.680936,1,1,255154.0,269606.0,1690,0.8703509,3.2022076,24.037598,293.1665,19.9556,370.072,-0.754765,-20.3974,64.9022,66.7148
1980-01-17 07:09:51,1,-0.871429,2.82857,-3.77143,1.07324,1,1,219556.0,166205.0,1690,0.87035525,3.2021379,24.025635,293.16626,18.2613,374.987,-7.41177,-4.53467,60.2047,52.3818
1980-01-17 07:11:12,1,-0.7,4.57143,-3.37143,0.438923,1,1,247083.0,180024.0,1690,0.87036389,3.2019978,24.013916,293.16626,19.0002,371.058,-7.46606,-8.24806,63.8675,54.5158
1980-01-17 07:12:33,1,-0.271429,4.31429,-3.55714,0.316228,1,1,210811.0,181408.0,1690,0.87036818,3.2019281,24.001953,293.16602,18.7056,370.92,-6.82935,-7.14246,58.9935,54.725
1980-01-17 07:13:54,1,-0.214286,3.18571,-3.82857,0.364776,1,1,235485.0,193464.0,1690,0.87037253,3.2018576,23.990234,293.16602,20.047,370.724,-4.13638,-5.98163,62.3504,56.5142
1980-01-17 07:15:15,1,-0.828571,2.2,-4.34286,0.394865,1,1,208580.0,188633.0,1690,0.87038118,3.2017183,23.978271,293.16577,18.5396,370.715,-4.9274,-5.52286,58.6805,55.8042
1980-01-17 07:16:36,1,-0.871429,2.44286,-4.62857,0.521771,1,1,219336.0,196793.0,1690,0.87038547,3.2016478,23.962646,293.16577,19.0001,371.007,-0.293034,-4.96099,60.1746,56.9984
1980-01-17 07:17:57,1,-0.528571,0.114286,-4.5,0.414532,1,1,193845.0,173436.0,1690,0.87038982,3.2015781,23.950928,293.16577,17.6721,368.732,2.56564,-2.30163,56.5698,53.5091
1980-01-17 07:19:18,1,0.342857,-0.885714,-4.34286,0.919849,1,1,219580.0,179166.0,1690,0.87039846,3.201438,23.938965,293.16553,18.9385,372.185,3.63768,-4.92868,60.208,54.3859
1980-01-17 07:20:39,1,-0.871429,-2.32857,-4.5,0.538327,1,1,228759.0,197173.0,1690,0.87040275,3.2013683,23.927246,293.16553,20.1431,376.027,2.80851,-3.2672,61.4535,57.0534
1980-01-17 07:22:00,1,0.9,2.7,-4.5,0.761577,1,1,169833.0,189541.0,1690,0.8704114,3.2012281,23.915283,293.16528,17.2678,369.335,-8.54612,1.7787,52.9504,55.9383
1980-01-17 07:23:21,1,3.925,-5.625,-3.3,0.310242,1,1,249577.0,190102.0,1690,0.87041575,3.2011576,23.903564,293.16528,19.1204,367.808,8.94261,-13.494,64.189,56.021
1980-01-17 07:24:42,1,3.32857,-1.31429,-3.37143,0.320077,1,1,227319.0,173210.0,1690,0.87042004,3.201088,23.887695,293.16504,19.0549,364.552,1.38022,-5.22741,61.2598,53.4743
1980-01-17 07:26:03,1,2.65714,-4.27143,-3.58571,0.8652,1,1,255228.0,202344.0,1690,0.87042868,3.2009478,23.875732,293.16479,18.23,373.9,0.228704,-14.1342,64.9116,57.7967
1980-01-17 07:27:24,1,2.1,-3.98333,-2.71667,0.559265,1,1,204353.0,207127.0,1690,0.87043303,3.2008781,23.864014,293.16479,17.502,370.065,6.13578,-12.8659,58.083,58.4758
1980-01-17 07:28:45,1,2.88333,-2.4,-2.36667,0.637922,1,1,264052.0,205913.0,1690,0.87043732,3.2008076,23.852295,293.16479,20.5318,368.858,3.71637,-9.52294,66.0241,58.3042
1980-01-17 07:30:06,1,1.42857,-2.11429,-2.84286,0.761577,1,1,294145.0,220628.0,1690,0.87044597,3.2006683,23.840332,293.16455,19.3986,373.548,0.0820915,-22.9293,69.6849,60.3515
1980-01-17 07:31:27,1,2.58571,-6.35714,-3.91429,0.413052,1,1,191049.0,198179.0,1690,0.87045032,3.2005978,23.828613,293.16455,18.8536,367.08,12.8479,-9.23115,56.1603,57.1987
1980-01-17 07:32:48,1,2.38571,-7.65714,-3.6,0.321984,1,1,136954.0,207668.0,1690,0.87045461,3.2005281,23.812744,293.16431,14.2207,370.286,9.48846,-11.8697,47.5495,58.5522
1980-01-17 07:34:09,1,2.2,-8.31429,-3.6,0.29966,1,1,203173.0,223143.0,1690,0.87046325,3.200388,23.801025,293.16431,16.3091,365.642,4.61072,-11.9428,57.915,60.6945
1980-01-17 07:35:30,1,1.93333,-8.46667,-3.0,0.48074,1,1,196561.0,209642.0,1690,0.87046754,3.2003183,23.789063,293.16406,15.8055,368.869,8.32456,-12.5785,56.9648,58.8297
1980-01-17 07:36:51,1,0.742857,-9.05714,-1.38571,0.542857,1,1,192311.0,213921.0,1690,0.87047189,3.2002478,23.777344,293.16406,18.3054,369.697,9.99942,-9.19565,56.3456,59.4271
1980-01-17 07:38:12,1,-0.0857143,-4.17143,-3.72857,1.94559,1,1,231709.0,172055.0,1690,0.87048054,3.2001076,23.765381,293.16382,18.5446,374.265,5.16259,-2.11952,61.8485,53.2957
1980-01-17 07:39:33,1,0.271429,-2.42857,-4.57143,0.421368,1,1,219084.0,186531.0,1690,0.87048483,3.200038,23.753662,293.16382,19.4974,371.519,3.047,-3.91896,60.1399,55.4924
1980-01-17 07:40:54,1,0.385714,-2.65714,-4.22857,0.420883,1,1,259131.0,210261.0,1690,0.87048918,3.1999674,23.741943,293.16382,19.9925,374.943,1.35606,-9.53623,65.406,58.9166
1980-01-17 07:42:15,1,0.342857,-1.91429,-4.4,0.33503,1,1,244030.0,209693.0,1690,0.87049782,3.1998281,23.726074,293.16357,20.5626,371.2,2.70582,-4.67853,63.4716,58.8369
1980-01-17 07:43:36,1,0.266667,-3.06667,-3.25,1.16631,1,1,309464.0,239828.0,1690,0.87050211,3.1997576,23.714355,293.16357,20.92,371.126,-1.46893,-17.6671,71.4764,62.9228
1980-01-17 07:44:57,1,4.8,-6.375,0.175,0.486056,1,1,274876.0,217300.0,1690,0.87050647,3.199688,23.702393,293.16333,20.5854,369.908,10.4294,-12.7439,67.3638,59.8945
1980-01-17 07:46:18,1,5.32857,-5.71429,-1.51429,0.932847,1,1,193158.0,187815.0,1690,0.87051511,3.1995478,23.69043,293.16309,18.1306,371.079,10.0997,-4.69132,56.4695,55.683
1980-01-17 07:47:39,1,6.08571,-6.32857,-0.0285714,0.453107,1,1,247071.0,189794.0,1690,0.8705194,3.1994781,23.678711,293.16309,20.3131,369.421,14.2776,-4.52415,63.8659,55.9756
1980-01-17 07:49:00,1,4.73333,-7.78333,1.46667,0.423281,1,1,204053.0,188822.0,1690,0.87052804,3.199338,23.666748,293.16284,17.2976,371.543,13.9342,-3.19444,58.0402,55.8322
1980-01-17 07:50:21,-1,nan,nan,nan,nan,1,4,nan,nan,1690,0.87053239,3.1992683,23.651123,293.16284,nan,nan,nan,nan,nan,nan
1980-01-17 07:51:42,1,5.11429,-7.14286,-0.1,0.535286,1,1,253906.0,213087.0,1690,0.87053668,3.1991978,23.639404,293.16284,19.0385,374.575,5.01085,-6.5831,64.7432,59.3111
1980-01-17 07:53:03,-1,nan,nan,nan,nan,1,4,nan,nan,1690,0.87054533,3.1990576,23.627441,293.1626,nan,nan,nan,nan,nan,nan
1980-01-17 07:54:24,1,4.3,-6.88571,-2.15714,0.431892,1,1,288057.0,204635.0,1690,0.87054968,3.198988,23.615723,293.1626,21.6055,374.664,8.70869,-7.6788,68.96,58.1229
1980-01-17 07:55:45,1,4.18571,-6.97143,-2.44286,0.456696,1,1,315633.0,203356.0,1690,0.87055397,3.1989183,23.60376,293.16235,21.155,375.037,0.960705,-10.4604,72.1853,57.9411
1980-01-17 07:57:06,1,4.47143,-7.87143,-0.671429,0.532227,1,1,336472.0,205118.0,1690,0.87056261,3.1987782,23.592041,293.16235,21.8449,371.968,4.13559,-9.79681,74.5302,58.1915
1980-01-17 07:58:27,-1,nan,nan,nan,nan,1,4,nan,nan,1690,0.87056696,3.1987076,23.576172,293.16211,nan,nan,nan,nan,nan,nan
1980-01-17 07:59:48,1,4.18571,-8.3,-0.328571,1.46399,1,1,370620.0,200726.0,1690,0.87057126,3.198638,23.564453,293.16211,22.0782,371.549,6.60568,-12.1116,78.2208,57.5651
1980-01-17 08:01:09,1,3.95714,-8.78571,0.814286,0.384389,1,1,314785.0,197343.0,1690,0.8705799,3.1984978,23.55249,293.16187,21.2197,375.4,4.44955,-11.2608,72.0883,57.0781
1980-01-17 08:02:30,1,4.34286,-9.22857,2.12857,0.469911,1,1,287788.0,192175.0,1690,0.87058419,3.1984282,23.540771,293.16187,20.5586,376.292,4.82429,-13.3362,68.9278,56.3257
1980-01-17 08:03:51,1,5.61429,-8.45714,4.21429,0.734291,1,1,279489.0,203128.0,1690,0.87058854,3.1983576,23.528809,293.16162,20.922,372.222,5.51601,-10.8252,67.9267,57.9086
1980-01-17 08:05:12,1,6.6,-8.01429,3.74286,0.351672,1,1,200834.0,196761.0,1690,0.87059718,3.1982183,23.51709,293.16162,18.253,367.599,10.3457,-10.573,57.5807,56.9937
1980-01-17 08:06:33,1,5.71429,-8.6,3.62857,0.316872,1,1,301185.0,211217.0,1690,0.87060148,3.1981478,23.505127,293.16138,22.2359,370.125,4.78772,-8.2826,70.5138,59.0503
1980-01-17 08:07:54,1,6.05,-8.2,3.6,0.423281,1,1,198932.0,204264.0,1690,0.87060577,3.1980782,23.489502,293.16138,19.4526,367.575,11.2918,-8.88037,57.3073,58.0703
1980-01-17 08:09:15,1,5.9625,-8.6375,5.95,0.748123,1,1,317808.0,197744.0,1690,0.87061441,3.197938,23.477539,293.16113,22.0225,370.238,6.73028,-8.85205,72.4337,57.136
1980-01-17 08:10:36,1,6.9,-7.18333,5.96667,0.655956,1,1,193368.0,174025.0,1690,0.87061876,3.1978683,23.46582,293.16113,16.6955,366.132,9.48571,-15.4756,56.5002,53.5999
1980-01-17 08:11:57,1,3.32857,-8.52857,8.94286,0.487811,1,1,303992.0,204943.0,1690,0.87062305,3.1977978,23.454102,293.16113,20.8759,375.621,-2.58842,-14.3947,70.8417,58.1667
1980-01-17 08:13:18,1,4.52857,-8.41429,7.32857,0.296923,1,1,364031.0,216424.0,1690,0.87063169,3.1976585,23.442139,293.16089,23.4001,371.617,7.95781,-14.9744,77.5223,59.7737
1980-01-17 08:14:39,1,4.74286,-8.72857,7.61429,0.325137,1,1,283391.0,198745.0,1690,0.87063599,3.197588,23.430176,293.16064,21.9127,371.389,6.71222,-12.5379,68.3992,57.2804
1980-01-17 08:16:00,1,1.95,-7.7,3.8,3.50036,1,1,233099.0,212406.0,1690,0.87064463,3.1974487,23.414551,293.16064,19.3306,370.409,14.0001,-13.6394,62.0337,59.2163
1980-01-17 08:17:21,1,-4.04286,-0.542857,-4.71429,0.550695,1,1,249439.0,198834.0,1690,0.87064892,3.1973782,23.402588,293.1604,20.0629,378.097,1.29315,-7.36939,64.1712,57.2933
1980-01-17 08:18:42,1,-3.14286,-2.52857,-3.7,0.589361,1,1,283421.0,213178.0,1690,0.87065327,3.1973085,23.390869,293.1604,20.9552,375.5,6.2102,-10.3819,68.4028,59.3238
1980-01-17 08:20:03,1,2.98571,-6.87143,0.957143,0.796421,1,1,302683.0,221843.0,1690,0.87066191,3.1971684,23.378906,293.16016,20.5736,373.012,1.90497,-12.0303,70.6891,60.5174
1980-01-17 08:21:24,1,4.075,-6.9125,5.05,0.798729,1,1,336026.0,220734.0,1690,0.87066621,3.1970987,23.367188,293.16016,20.7066,374.461,5.00978,-17.0778,74.4808,60.366
1980-01-17 08:22:45,1,4.1,-5.375,0.8125,2.45366,1,1,307228.0,237464.0,1690,0.8706705,3.1970282,23.355225,293.15991,21.0943,372.595,9.01709,-21.9479,71.2178,62.6119
1980-01-17 08:24:06,1,4.54286,-6.6,3.25714,0.766652,1,1,342280.0,239790.0,1690,0.87067914,3.1968889,23.3396,293.15991,20.9866,378.107,6.89103,-12.0419,75.1707,62.9177
1980-01-17 08:25:27,1,5.48571,-6.31429,2.2,0.477664,1,1,392161.0,226658.0,1690,0.87068349,3.1968184,23.327637,293.15967,22.7893,372.847,10.8643,-16.2316,80.4619,61.1706
1980-01-17 08:26:48,1,7.34286,-5.02857,4.84286,0.348173,1,1,388504.0,249254.0,1690,0.87068778,3.1967487,23.315918,293.15967,22.1032,375.733,1.70064,-13.5554,80.0859,64.1474
1980-01-17 08:28:09,-1,nan,nan,nan,nan,1,4,nan,nan,1690,0.87069643,3.1966085,23.303955,293.15942,nan,nan,nan,nan,nan,nan
1980-01-17 08:29:30,1,7.42857,-4.35714,3.28571,1.25584,1,1,383924.0,236623.0,1690,0.87070072,3.1965389,23.292236,293.15942,21.6148,373.823,-3.33235,-14.148,79.6124,62.5009
1980-01-17 08:30:51,-1,nan,nan,nan,nan,1,4,nan,nan,1690,0.87070507,3.1964693,23.280518,293.15942,nan,nan,nan,nan,nan,nan
1980-01-17 08:32:12,1,2.48571,-7.41429,0.685714,0.343452,1,1,259707.0,187312.0,1690,0.87071365,3.1963291,23.268555,293.15918,17.3229,387.687,9.61425,1.25001,65.4786,55.6084
1980-01-17 08:33:33,1,2.25714,-6.42857,0.957143,1.0246,1,1,326828.0,228522.0,1690,0.870718,3.1962585,23.252686,293.15894,22.7189,380.023,5.86165,-8.10567,73.4544,61.4217
1980-01-17 08:34:54,1,3.88571,-6.78571,2.3,1.93749,1,1,249011.0,224726.0,1690,0.87072229,3.1961889,23.240967,293.15894,18.1223,377.263,4.31944,-8.13426,64.1161,60.9094
1980-01-17 08:36:15,1,2.82857,-6.72857,1.12857,0.481494,1,1,266388.0,224661.0,1690,0.87073094,3.1960487,23.229004,293.15869,19.6938,375.983,9.50841,-9.20424,66.3155,60.9007
1980-01-17 08:37:36,1,1.825,-6.775,0.1,1.33651,1,1,273827.0,251104.0,1690,0.87073523,3.1959791,23.217285,293.15869,20.4286,373.329,20.3492,-24.8763,67.2351,64.385
1980-01-17 08:38:57,1,2.68571,-6.35714,0.371429,0.512696,1,1,248091.0,220660.0,1690,0.87073958,3.1959095,23.205566,293.15869,19.0878,376.133,17.6949,-16.816,63.9976,60.3558
1980-01-17 08:40:18,1,2.575,-7.725,7.2,1.2515,1,1,229792.0,224081.0,1690,0.87074822,3.1957693,23.193604,293.15845,19.516,374.986,14.123,-8.08358,61.5922,60.822
1980-01-17 08:41:39,1,1.86667,-7.66667,8.2,0.392994,1,1,230256.0,212484.0,1690,0.87075251,3.1956987,23.177979,293.15845,19.5425,367.708,18.646,6.48573,61.6543,59.2272
1980-01-17 08:43:00,1,4.48571,-8.42857,4.75714,1.061,1,1,209932.0,187853.0,1690,0.87076116,3.1955595,23.166016,293.1582,18.2348,375.057,19.5659,-8.96194,58.8705,55.6887
1980-01-17 08:44:21,1,5.68571,-8.44286,2.37143,0.381725,1,1,224775.0,226363.0,1690,0.87076545,3.1954889,23.154053,293.15796,20.8695,373.214,15.6728,-12.0194,60.9161,61.1309
1980-01-17 08:45:42,1,5.52857,-8.1,1.87143,0.642381,1,1,221004.0,212170.0,1690,0.8707698,3.1954193,23.142334,293.15796,19.0346,375.703,12.5764,-12.449,60.403,59.1833
1980-01-17 08:47:03,1,8.68571,-4.94286,4.32857,0.444008,1,1,259379.0,224078.0,1690,0.87077838,3.1952791,23.130371,293.15771,20.35,378.565,17.3643,-11.0409,65.4373,60.8216
1980-01-17 08:48:24,1,8.3875,-4.275,2.125,0.64214,1,1,261543.0,206184.0,1690,0.87078273,3.1952095,23.118652,293.15771,19.6967,380.475,15.6299,-12.0442,65.7097,58.3425
1980-01-17 08:49:45,1,9.07143,-3.47143,1.42857,0.385979,1,1,336516.0,211340.0,1690,0.87078702,3.1951399,23.103027,293.15771,21.415,377.614,19.1994,-16.3464,74.5351,59.0675
1980-01-17 08:51:06,1,4.62857,-8.88571,2.27143,0.742307,1,1,186880.0,200908.0,1690,0.87079567,3.1949997,23.091064,293.15747,18.4209,378.639,15.7625,-10.4681,55.5443,57.5913
1980-01-17 08:52:27,1,5.02857,-8.97143,2.95714,1.39313,1,1,191218.0,200619.0,1690,0.87079996,3.1949291,23.079102,293.15723,19.0558,374.94,16.3771,-10.8555,56.1852,57.5498
1980-01-17 08:53:48,1,4.05,-9.55,2.6,0.893495,1,1,180691.0,191116.0,1690,0.87080431,3.1948595,23.067383,293.15723,18.1721,373.279,19.8663,-13.4741,54.6167,56.1703
1980-01-17 08:55:09,1,4.2875,-9.4375,3.625,1.16525,1,1,236271.0,221735.0,1690,0.87081295,3.1947193,23.05542,293.15698,21.3699,367.204,14.6414,-9.55301,62.4544,60.5028
1980-01-17 08:56:30,1,2.04286,-8.88571,8.11429,0.391752,1,1,187625.0,197025.0,1690,0.87081724,3.1946497,23.043701,293.15698,19.2479,369.863,15.3185,-7.99375,55.6549,57.032
1980-01-17 08:57:51,1,1.81429,-7.8,10.5714,1.12649,1,1,169432.0,210264.0,1690,0.87082154,3.1945801,23.031982,293.15698,19.7727,369.881,20.7173,-8.03116,52.8878,58.9169
1980-01-17 08:59:12,1,3.18571,-7.72857,8.34286,1.13263,1,1,173506.0,189633.0,1690,0.87083018,3.1944399,23.016113,293.15674,18.6561,368.189,16.9178,-7.57356,53.5199,55.9518